Find GPS 9

NORAD ID: 15039 Int'l Des: 1984-059 Owner: AFSD Country: US Constellation: GPS operational
MEO

リアルタイム位置

3D地球を読み込み中...

GPS 9について

説明を読み込み中...

次回通過

Passes for default location (London). Set your location on the main map for personalized predictions.

高度履歴

Loading altitude history...

軌道要素

1 15039U 84059A 26115.60288313 -.00000015 00000-0 00000+0 0 9996
2 15039 63.5448 65.8088 0242260 53.6474 126.5991 1.92302594297118
Epoch: Apr 25, 2026 • Age: 109 hours

現在のステータス

高度 20340.3 km
速度 3.91 km/s
衛星直下点 60.95°N, 136.83°W
打ち上げ日 Jun 13, 1984
運用期間 41.8 years
タイプ navigation

技術仕様

分類 Payload
質量 431.00 kg
乾燥質量 431.00 kg
総質量 792.00 kg
長さ 2.40 m
直径 2.60 m
スパン 5.30 m
形状 Box + 2 Pan
製造者 RWISB
バスタイプ GPS
フェーズステータス In Orbit
所有者/国 AFSD/US

Most Searched